Location: SE Lincoln, NE
(40.7805°N, 96.6275°W)
Time: 07:15:41
(UTC-05:00)

USA 308 - Pass Details

Date: 15 May 2021
Orbit: 568 x 576 km, 54.0° (Epoch: 10 May)

Event Time Altitude Azimuth Distance (km) Brightness Sun altitude
Rises 21:12:39 0° 314° (NW) 2,782 8.5 -6.6°
Reaches altitude 10° 21:15:05 10° 324° (NW) 1,883 6.9 -7.0°
Maximum altitude 21:19:01 34° 30° (NNE) 949 4.1 -7.6°
Drops below altitude 10° 21:22:56 10° 97° (E) 1,879 5.0 -8.3°
Enters shadow 21:23:19 - 99° (E) 2,018 5.1 -8.3°
